Weather History for KMFI - July, 2013

Change the Weather History Date:

Saturday, July 27, 2013

  Actual Average Record
Temperature  
Mean Temperature 50 °F -  
Max Temperature 57 °F 80 °F 97 °F (1931)
Min Temperature 44 °F 55 °F 43 °F (1981)
Degree Days  
Heating Degree Days 16    
Moisture  
Dew Point 45 °F    
Average Humidity 82    
Maximum Humidity 93    
Minimum Humidity 69    
Precipitation  
Precipitation 0.00 in - - ()
Sea Level Pressure  
Sea Level Pressure 29.92 in    
Wind  
Wind Speed 9 mph (NW)    
Max Wind Speed 15 mph    
Max Gust Speed 21 mph    
Visibility 10 miles    
Events Rain    
Averages and records for this station are not official NWS values.
T = Trace of Precipitation, MM = Missing Value Source: NWS Daily Summary

Daily Weather History Graph

Daily Weather History Graph

Search for Another Location

Airport or City:

Trip Planner

Search our weather history database for the weather conditions in past years. The results will help you decide how hot, cold, wet, or windy it might be!

Date:

Astronomy

Jul. 27, 2013 Rise Set
Actual Time 5:41 AM CDT 8:31 PM CDT
Civil Twilight 5:07 AM CDT 9:05 PM CDT
Nautical Twilight 4:24 AM CDT 9:48 PM CDT
Astronomical Twilight 3:33 AM CDT 10:39 PM CDT
Moon 11:01 PM CDT (7/27) 11:39 AM CDT (7/27)
Length of Visible Light 15h 58m
Length of Day
14h 50m
Waning Gibbous, 70% of the Moon is Illuminated
Jul 27
Waning Gibbous
Jul 29
Last Quarter
Aug 6
New
Aug 14
First Quarter
Aug 20
Full

Hourly Weather History & Observations

Time (CDT) Temp. Windchill Dew Point Humidity Pressure Visibility Wind Dir Wind Speed Gust Speed Precip Events Conditions
12:54 AM 48.9 °F - 44.1 °F 83% 29.97 in 10.0 mi NNW 10.4 mph - N/A   Clear
1:54 AM 48.9 °F - 43.0 °F 80% 29.97 in 10.0 mi North 9.2 mph - N/A   Partly Cloudy
2:54 AM 46.0 °F 43.9 °F 43.0 °F 89% 29.97 in 10.0 mi NW 4.6 mph - N/A   Clear
3:33 AM 46.4 °F 42.9 °F 42.8 °F 87% 29.97 in 10.0 mi NW 6.9 mph - N/A   Mostly Cloudy
3:54 AM 46.9 °F - 44.1 °F 90% 29.97 in 10.0 mi NW 8.1 mph - N/A   Mostly Cloudy
4:01 AM 46.4 °F 42.9 °F 44.6 °F 93% 29.96 in 10.0 mi NW 6.9 mph - N/A   Overcast
4:20 AM 48.2 °F - 44.6 °F 87% 29.96 in 10.0 mi NW 8.1 mph - N/A   Overcast
4:31 AM 48.2 °F - 44.6 °F 87% 29.96 in 10.0 mi NNW 9.2 mph - N/A   Overcast
4:54 AM 46.9 °F - 43.0 °F 86% 29.97 in 10.0 mi NNW 13.8 mph - N/A   Overcast
5:09 AM 46.4 °F 41.5 °F 42.8 °F 87% 29.97 in 10.0 mi NW 10.4 mph - N/A   Overcast
5:54 AM 45.0 °F 40.1 °F 42.1 °F 90% 29.98 in 10.0 mi NW 9.2 mph - N/A   Mostly Cloudy
6:06 AM 44.6 °F 40.2 °F 42.8 °F 93% 29.97 in 10.0 mi NW 8.1 mph - N/A   Scattered Clouds
6:45 AM 46.4 °F 41.5 °F 42.8 °F 87% 29.97 in 10.0 mi NW 10.4 mph - N/A   Mostly Cloudy
6:54 AM 46.9 °F - 43.0 °F 86% 29.98 in 10.0 mi NW 10.4 mph - N/A   Overcast
7:17 AM 48.2 °F - 42.8 °F 82% 29.97 in 10.0 mi NW 9.2 mph - N/A   Scattered Clouds
7:54 AM 48.9 °F - 43.0 °F 80% 29.97 in 10.0 mi NW 12.7 mph - N/A   Partly Cloudy
8:19 AM 48.2 °F - 42.8 °F 82% 29.96 in 10.0 mi NW 12.7 mph 19.6 mph N/A   Overcast
8:54 AM 50.0 °F - 44.1 °F 80% 29.97 in 10.0 mi NW 11.5 mph - N/A   Overcast
9:54 AM 53.1 °F - 45.0 °F 74% 29.95 in 10.0 mi NW 11.5 mph - N/A   Overcast
10:36 AM 51.8 °F - 44.6 °F 76% 29.93 in 10.0 mi NW 11.5 mph - N/A   Overcast
10:54 AM 54.0 °F - 45.0 °F 72% 29.93 in 10.0 mi WNW 9.2 mph - N/A   Overcast
11:14 AM 53.6 °F - 44.6 °F 72% 29.92 in 10.0 mi NW 11.5 mph - N/A   Overcast
11:54 AM 53.1 °F - 46.0 °F 77% 29.93 in 10.0 mi WNW 8.1 mph - 0.00 in   Overcast
12:08 PM 53.6 °F - 44.6 °F 72% 29.91 in 10.0 mi WNW 10.4 mph - N/A   Overcast
12:33 PM 53.6 °F - 44.6 °F 72% 29.91 in 10.0 mi NW 9.2 mph - N/A   Overcast
12:42 PM 53.6 °F - 44.6 °F 72% 29.91 in 8.0 mi NNW 11.5 mph - 0.00 in Rain Light Rain
12:54 PM 52.0 °F - 46.9 °F 83% 29.93 in 7.0 mi NNW 10.4 mph - 0.00 in Rain Light Rain
1:18 PM 51.8 °F - 46.4 °F 82% 29.91 in 10.0 mi WNW 8.1 mph - 0.00 in   Overcast
1:54 PM 55.0 °F - 46.0 °F 72% 29.92 in 10.0 mi NW 10.4 mph - 0.00 in   Overcast
2:54 PM 55.9 °F - 46.0 °F 69% 29.91 in 10.0 mi West 10.4 mph - 0.00 in   Overcast
3:54 PM 55.9 °F - 46.9 °F 72% 29.90 in 10.0 mi WNW 11.5 mph - N/A   Overcast
4:32 PM 55.4 °F - 46.4 °F 72% 29.88 in 10.0 mi WNW 11.5 mph - N/A   Overcast
4:45 PM 55.4 °F - 46.4 °F 72% 29.88 in 10.0 mi WNW 12.7 mph - N/A   Overcast
4:54 PM 54.0 °F - 46.0 °F 75% 29.90 in 10.0 mi NW 15.0 mph 20.7 mph N/A   Overcast
5:54 PM 52.0 °F - 48.9 °F 89% 29.89 in 10.0 mi NW 10.4 mph 17.3 mph 0.00 in   Overcast
6:46 PM 53.6 °F - 48.2 °F 82% 29.87 in 10.0 mi WNW 6.9 mph - N/A   Overcast
6:54 PM 54.0 °F - 46.9 °F 77% 29.88 in 10.0 mi WNW 9.2 mph - N/A   Overcast
7:10 PM 53.6 °F - 46.4 °F 77% 29.86 in 10.0 mi WNW 8.1 mph - N/A   Overcast
7:54 PM 52.0 °F - 46.9 °F 83% 29.87 in 10.0 mi WNW 6.9 mph - N/A   Overcast
8:54 PM 52.0 °F - 46.9 °F 83% 29.88 in 9.0 mi WNW 15.0 mph - 0.00 in Rain Light Rain
9:20 PM 51.8 °F - 48.2 °F 88% 29.87 in 10.0 mi NW 4.6 mph - 0.00 in   Overcast
9:54 PM 51.1 °F - 48.0 °F 89% 29.88 in 10.0 mi WNW 5.8 mph - 0.00 in   Overcast
10:54 PM 51.1 °F - 48.0 °F 89% 29.88 in 10.0 mi West 4.6 mph - 0.00 in   Overcast
11:35 PM 51.8 °F - 48.2 °F 88% 29.86 in 10.0 mi NW 4.6 mph - N/A   Overcast
11:52 PM 51.8 °F - 48.2 °F 88% 29.86 in 10.0 mi NW 6.9 mph - N/A   Overcast
11:54 PM 51.1 °F - 48.0 °F 89% 29.88 in 10.0 mi NW 6.9 mph - N/A   Overcast